When you browse on this site, cookies collect data to enhance your experience and personalize the content and advertising you see.
Visit our Privacy Policy to learn more. By continuing to use the site, you agree to this use of cookies and data.
  • Em Portugal
  • Lista de países
  • Para 7 dias
  • Temperatura da água
  • Mapa do tempo
  • Widgets de tempo
  • user-avatar
    Iniciar Sessão

    Previsão horária em Saidpur

    Hoje, 1 Junho, Segunda-feira

    Tempo Temperatura Precipitação Vento Pressão Humidade
    00:00 +29°C° 0 mm 3 m/s 753 mmHg 73%
    01:00 +29°C° 0 mm 3 m/s 753 mmHg 75%
    02:00 +28°C° 0 mm 3 m/s 752 mmHg 78%
    03:00 +28°C° 0 mm 3 m/s 752 mmHg 80%
    04:00 +28°C° 0 mm 3 m/s 752 mmHg 82%
    05:00 +27°C° 0 mm 3 m/s 752 mmHg 83%
    06:00 +27°C° 0 mm 3 m/s 752 mmHg 83%
    07:00 +29°C° 0 mm 3 m/s 753 mmHg 78%
    08:00 +30°C° 0 mm 3 m/s 753 mmHg 72%
    09:00 +32°C° 0 mm 2 m/s 753 mmHg 67%
    10:00 +35°C° 0 mm 3 m/s 753 mmHg 59%
    11:00 +37°C° 0 mm 3 m/s 752 mmHg 51%
    12:00 +38°C° 0 mm 3 m/s 752 mmHg 43%
    13:00 +39°C° 0 mm 3 m/s 751 mmHg 39%
    14:00 +42°C° 0 mm 3 m/s 750 mmHg 34%
    15:00 +43°C° 0 mm 3 m/s 749 mmHg 29%
    16:00 +40°C° 0 mm 3 m/s 749 mmHg 34%
    17:00 +39°C° 0 mm 3 m/s 748 mmHg 38%
    18:00 +38°C° 0 mm 2 m/s 748 mmHg 42%
    19:00 +36°C° 0.1 mm 3 m/s 749 mmHg 49%
    20:00 +35°C° 0.1 mm 3 m/s 749 mmHg 57%
    21:00 +33°C° 0.1 mm 4 m/s 749 mmHg 64%
    22:00 +33°C° 0 mm 4 m/s 749 mmHg 65%
    23:00 +32°C° 0 mm 4 m/s 750 mmHg 66%

    Amanhã, 2 Junho, Terça-feira

    Tempo Temperatura Precipitação Vento Pressão Humidade
    00:00 +32°C° 0 mm 4 m/s 750 mmHg 67%
    01:00 +31°C° 0 mm 3 m/s 749 mmHg 68%
    02:00 +31°C° 0 mm 2 m/s 749 mmHg 69%
    03:00 +31°C° 0 mm 2 m/s 749 mmHg 70%
    04:00 +31°C° 0 mm 2 m/s 749 mmHg 70%
    05:00 +31°C° 0 mm 2 m/s 749 mmHg 71%
    06:00 +30°C° 0 mm 2 m/s 749 mmHg 72%
    07:00 +32°C° 0 mm 2 m/s 750 mmHg 67%
    08:00 +35°C° 0 mm 2 m/s 750 mmHg 61%
    09:00 +36°C° 0 mm 3 m/s 750 mmHg 55%
    10:00 +38°C° 0 mm 3 m/s 750 mmHg 48%
    11:00 +40°C° 0 mm 3 m/s 750 mmHg 41%
    12:00 +42°C° 0 mm 3 m/s 750 mmHg 34%
    13:00 +42°C° 0 mm 3 m/s 749 mmHg 34%
    14:00 +42°C° 0 mm 4 m/s 748 mmHg 34%
    15:00 +41°C° 0 mm 4 m/s 747 mmHg 35%
    16:00 +41°C° 0 mm 4 m/s 747 mmHg 37%
    17:00 +39°C° 0 mm 3 m/s 747 mmHg 39%
    18:00 +39°C° 0 mm 3 m/s 747 mmHg 42%
    19:00 +37°C° 0 mm 4 m/s 747 mmHg 47%
    20:00 +35°C° 0 mm 5 m/s 748 mmHg 53%
    21:00 +34°C° 0 mm 6 m/s 748 mmHg 59%
    22:00 +33°C° 0 mm 6 m/s 749 mmHg 63%
    23:00 +32°C° 0 mm 6 m/s 749 mmHg 67%

    Depois de amanhã, 3 Junho, Quarta-feira

    Tempo Temperatura Precipitação Vento Pressão Humidade
    00:00 +30°C° 0 mm 6 m/s 749 mmHg 71%
    01:00 +30°C° 0 mm 5 m/s 749 mmHg 72%
    02:00 +30°C° 0 mm 4 m/s 749 mmHg 74%
    03:00 +30°C° 0 mm 3 m/s 749 mmHg 75%
    04:00 +30°C° 0 mm 4 m/s 749 mmHg 78%
    05:00 +29°C° 0 mm 4 m/s 749 mmHg 81%
    06:00 +29°C° 0 mm 4 m/s 750 mmHg 85%
    07:00 +29°C° 0.1 mm 4 m/s 750 mmHg 84%
    08:00 +29°C° 0.1 mm 4 m/s 751 mmHg 82%
    09:00 +29°C° 0.1 mm 4 m/s 751 mmHg 81%
    10:00 +30°C° 0 mm 4 m/s 751 mmHg 80%
    11:00 +30°C° 0 mm 4 m/s 751 mmHg 78%
    12:00 +32°C° 0 mm 4 m/s 751 mmHg 77%
    13:00 +31°C° 0 mm 3 m/s 750 mmHg 73%
    14:00 +32°C° 0 mm 2 m/s 750 mmHg 69%
    15:00 +32°C° 0 mm 1 m/s 749 mmHg 66%
    16:00 +33°C° 0 mm 1 m/s 749 mmHg 63%
    17:00 +33°C° 0 mm 1 m/s 749 mmHg 61%
    18:00 +33°C° 0 mm 1 m/s 748 mmHg 59%
    19:00 +32°C° 0 mm 1 m/s 749 mmHg 63%
    20:00 +32°C° 0 mm 1 m/s 750 mmHg 68%
    21:00 +31°C° 0 mm 1 m/s 750 mmHg 73%
    22:00 +30°C° 0 mm 1 m/s 750 mmHg 73%
    23:00 +30°C° 0 mm 1 m/s 750 mmHg 74%

    4 Junho, Quinta-feira

    Tempo Temperatura Precipitação Vento Pressão Humidade
    00:00 +30°C° 0 mm 1 m/s 750 mmHg 74%
    01:00 +30°C° 0 mm 2 m/s 750 mmHg 73%
    02:00 +30°C° 0 mm 2 m/s 750 mmHg 72%
    03:00 +30°C° 0 mm 2 m/s 750 mmHg 71%
    04:00 +30°C° 0 mm 2 m/s 750 mmHg 71%
    05:00 +30°C° 0 mm 1 m/s 750 mmHg 70%
    06:00 +30°C° 0 mm 1 m/s 750 mmHg 69%
    07:00 +32°C° 0 mm 1 m/s 750 mmHg 60%
    08:00 +33°C° 0 mm 1 m/s 751 mmHg 51%
    09:00 +35°C° 0 mm 1 m/s 751 mmHg 42%
    10:00 +36°C° 0 mm 1 m/s 751 mmHg 39%
    11:00 +37°C° 0 mm 1 m/s 751 mmHg 36%
    12:00 +39°C° 0 mm 2 m/s 750 mmHg 33%
    13:00 +39°C° 0 mm 2 m/s 750 mmHg 35%
    14:00 +39°C° 0 mm 2 m/s 749 mmHg 36%
    15:00 +38°C° 0 mm 2 m/s 749 mmHg 38%
    16:00 +38°C° 0 mm 3 m/s 748 mmHg 41%
    17:00 +37°C° 0 mm 3 m/s 748 mmHg 44%
    18:00 +36°C° 0 mm 4 m/s 748 mmHg 47%
    19:00 +35°C° 0 mm 3 m/s 748 mmHg 51%
    20:00 +34°C° 0 mm 2 m/s 749 mmHg 55%
    21:00 +32°C° 0 mm 1 m/s 749 mmHg 59%
    22:00 +32°C° 0 mm 1 m/s 749 mmHg 60%
    23:00 +32°C° 0 mm 1 m/s 749 mmHg 61%

    5 Junho, Sexta-feira

    Tempo Temperatura Precipitação Vento Pressão Humidade
    00:00 +31°C° 0 mm 1 m/s 750 mmHg 63%
    01:00 +31°C° 1.1 mm 1 m/s 749 mmHg 67%
    02:00 +30°C° 1.1 mm 2 m/s 749 mmHg 71%
    03:00 +30°C° 1.1 mm 2 m/s 749 mmHg 76%
    04:00 +29°C° 0.5 mm 2 m/s 749 mmHg 78%
    05:00 +29°C° 0.5 mm 2 m/s 749 mmHg 80%
    06:00 +29°C° 0.5 mm 3 m/s 749 mmHg 82%
    07:00 +30°C° 0.3 mm 3 m/s 749 mmHg 78%
    08:00 +33°C° 0.3 mm 3 m/s 750 mmHg 73%
    09:00 +34°C° 0.3 mm 3 m/s 750 mmHg 68%
    10:00 +35°C° 0 mm 2 m/s 750 mmHg 63%
    11:00 +36°C° 0 mm 2 m/s 749 mmHg 58%
    12:00 +36°C° 0 mm 1 m/s 749 mmHg 53%
    13:00 +37°C° 0 mm 1 m/s 748 mmHg 49%
    14:00 +39°C° 0 mm 1 m/s 748 mmHg 45%
    15:00 +40°C° 0 mm 2 m/s 747 mmHg 41%
    16:00 +40°C° 0 mm 2 m/s 747 mmHg 43%
    17:00 +39°C° 0 mm 2 m/s 747 mmHg 44%
    18:00 +39°C° 0 mm 3 m/s 747 mmHg 46%
    19:00 +37°C° 0.1 mm 3 m/s 747 mmHg 51%
    20:00 +36°C° 0.1 mm 3 m/s 748 mmHg 56%
    21:00 +35°C° 0.1 mm 4 m/s 748 mmHg 62%
    22:00 +34°C° 0 mm 3 m/s 748 mmHg 64%
    23:00 +34°C° 0 mm 3 m/s 748 mmHg 67%

    6 Junho, Sábado

    Tempo Temperatura Precipitação Vento Pressão Humidade
    00:00 +33°C° 0 mm 3 m/s 748 mmHg 70%
    01:00 +33°C° 0.1 mm 3 m/s 748 mmHg 71%
    02:00 +33°C° 0.1 mm 3 m/s 747 mmHg 73%
    03:00 +31°C° 0.1 mm 2 m/s 747 mmHg 74%
    04:00 +31°C° 0.1 mm 2 m/s 747 mmHg 75%
    05:00 +31°C° 0.1 mm 2 m/s 747 mmHg 76%
    06:00 +31°C° 0.1 mm 2 m/s 747 mmHg 77%
    07:00 +32°C° 0 mm 2 m/s 748 mmHg 71%
    08:00 +34°C° 0 mm 3 m/s 748 mmHg 65%
    09:00 +36°C° 0 mm 3 m/s 749 mmHg 59%
    10:00 +37°C° 0 mm 3 m/s 748 mmHg 54%
    11:00 +38°C° 0 mm 3 m/s 748 mmHg 50%
    12:00 +40°C° 0 mm 3 m/s 748 mmHg 45%
    13:00 +40°C° 0.1 mm 3 m/s 747 mmHg 43%
    14:00 +40°C° 0.1 mm 3 m/s 747 mmHg 42%
    15:00 +42°C° 0.1 mm 3 m/s 746 mmHg 40%
    16:00 +39°C° 0.2 mm 3 m/s 746 mmHg 45%
    17:00 +38°C° 0.2 mm 2 m/s 746 mmHg 50%
    18:00 +36°C° 0.2 mm 2 m/s 745 mmHg 56%
    19:00 +36°C° 0.3 mm 2 m/s 746 mmHg 59%
    20:00 +35°C° 0.3 mm 3 m/s 747 mmHg 62%
    21:00 +34°C° 0.3 mm 3 m/s 747 mmHg 65%
    22:00 +34°C° 0 mm 3 m/s 747 mmHg 66%
    23:00 +34°C° 0 mm 2 m/s 747 mmHg 68%
    Mostrar mais